| time (UTC) | temp C | wind direction | speed KPH | gust KPH | rain 1hr cm | rain 24hr cm | rain mn cm | humidity % | barometer mb |
| 20260505210004 | 8 | 40 | 19.3 | 19.3 | 0.00 | 0.00 | 0.00 | 70 | 1014.9 |
| 20260505204007 | 10 | 40 | 14.5 | 14.5 | 0.00 | 0.00 | 0.00 | 76 | 1013.9 |
| 20260505203504 | 10 | 40 | 14.5 | 14.5 | 0.00 | 0.00 | 0.00 | 76 | 1013.9 |
| 20260505202505 | 10 | 40 | 14.5 | 14.5 | 0.00 | 0.00 | 0.00 | 76 | 1013.9 |
| 20260505202007 | 10 | 40 | 14.5 | 14.5 | 0.00 | 0.00 | 0.00 | 76 | 1013.9 |
| 20260505201007 | 10 | 40 | 14.5 | 14.5 | 0.00 | 0.00 | 0.00 | 76 | 1013.9 |
| 20260505200004 | 10 | 40 | 14.5 | 19.3 | 0.00 | 0.00 | 0.00 | 76 | 1013.9 |
| 20260505195505 | 11 | 40 | 19.3 | 19.3 | 0.00 | 0.00 | 0.00 | 71 | 1013.9 |
| 20260505194504 | 11 | 40 | 19.3 | 19.3 | 0.00 | 0.00 | 0.00 | 71 | 1013.9 |
| 20260505194007 | 11 | 40 | 19.3 | 19.3 | 0.00 | 0.00 | 0.00 | 71 | 1013.9 |
| 20260505193504 | 11 | 40 | 19.3 | 19.3 | 0.00 | 0.00 | 0.00 | 71 | 1013.9 |
| 20260505193009 | 11 | 40 | 19.3 | 19.3 | 0.00 | 0.00 | 0.00 | 71 | 1013.9 |
| 20260505192007 | 11 | 40 | 19.3 | 19.3 | 0.00 | 0.00 | 0.00 | 71 | 1013.9 |
| 20260505190004 | 11 | 40 | 19.3 | 19.3 | 0.00 | 0.00 | 0.00 | 71 | 1013.9 |
| 20260505182503 | 12 | 20 | 12.9 | 12.9 | 0.00 | 0.00 | 0.00 | 57 | 1012.9 |
| 20260505175007 | 12 | 20 | 12.9 | 12.9 | 0.00 | 0.00 | 0.00 | 54 | 1012.9 |
| 20260505173504 | 12 | 20 | 12.9 | 12.9 | 0.00 | 0.00 | 0.00 | 54 | 1012.9 |
| 20260505172008 | 12 | 20 | 12.9 | 12.9 | 0.00 | 0.00 | 0.00 | 54 | 1012.9 |
| 20260505171504 | 12 | 20 | 12.9 | 12.9 | 0.00 | 0.00 | 0.00 | 54 | 1012.9 |
| 20260505171008 | 12 | 20 | 12.9 | 12.9 | 0.00 | 0.00 | 0.00 | 54 | 1012.9 |
| 20260505165007 | 12 | 340 | 12.9 | 12.9 | 0.00 | 0.00 | 0.00 | 54 | 1012.9 |
| 20260505164007 | 12 | 340 | 12.9 | 12.9 | 0.00 | 0.00 | 0.00 | 54 | 1012.9 |
| 20260505163009 | 12 | 340 | 12.9 | 12.9 | 0.00 | 0.00 | 0.00 | 54 | 1012.9 |
| 20260505161504 | 12 | 340 | 12.9 | 12.9 | 0.00 | 0.00 | 0.00 | 54 | 1012.9 |
| 20260505161007 | 12 | 340 | 12.9 | 12.9 | 0.00 | 0.00 | 0.00 | 54 | 1012.9 |
| 20260505123504 | 12 | 350 | 9.7 | 9.7 | 0.00 | 0.00 | 0.00 | 54 | 1012.9 |
| 20260505122007 | 12 | 350 | 9.7 | 9.7 | 0.00 | 0.00 | 0.00 | 54 | 1012.9 |
| 20260505115007 | 12 | 340 | 12.9 | 12.9 | 0.00 | 0.00 | 0.00 | 62 | 1013.9 |
| 20260505114008 | 12 | 340 | 12.9 | 12.9 | 0.00 | 0.00 | 0.00 | 62 | 1013.9 |
| 20260505113007 | 12 | 340 | 12.9 | 12.9 | 0.00 | 0.00 | 0.00 | 62 | 1013.9 |
| 20260505111007 | 12 | 340 | 12.9 | 12.9 | 0.00 | 0.00 | 0.00 | 62 | 1013.9 |
| 20260505102007 | 12 | 30 | 11.3 | 11.3 | 0.00 | 0.00 | 0.00 | 62 | 1013.9 |
| 20260505095007 | 12 | 320 | 11.3 | 11.3 | 0.00 | 0.00 | 0.00 | 66 | 1013.9 |
| 20260505094504 | 12 | 320 | 11.3 | 11.3 | 0.00 | 0.00 | 0.00 | 66 | 1013.9 |
| 20260505091008 | 12 | 320 | 11.3 | 11.3 | 0.00 | 0.00 | 0.00 | 66 | 1013.9 |
| 20260505090504 | 12 | 320 | 11.3 | 11.3 | 0.00 | 0.00 | 0.00 | 66 | 1013.9 |
| 20260505083007 | 10 | 310 | 9.7 | 9.7 | 0.00 | 0.00 | 0.00 | 76 | 1013.9 |
| 20260505082504 | 10 | 310 | 9.7 | 9.7 | 0.00 | 0.00 | 0.00 | 76 | 1013.9 |
| 20260505081503 | 10 | 310 | 9.7 | 9.7 | 0.00 | 0.00 | 0.00 | 76 | 1013.9 |
| 20260505080004 | 10 | 310 | 9.7 | 9.7 | 0.00 | 0.00 | 0.00 | 76 | 1013.9 |
| 20260505075504 | 7 | 300 | 9.7 | 9.7 | 0.00 | 0.00 | 0.00 | 87 | 1013.9 |
| 20260505074008 | 7 | 300 | 9.7 | 9.7 | 0.00 | 0.00 | 0.00 | 87 | 1013.9 |
| 20260505072504 | 7 | 300 | 9.7 | 9.7 | 0.00 | 0.00 | 0.00 | 87 | 1013.9 |
| 20260505071504 | 7 | 300 | 9.7 | 9.7 | 0.00 | 0.00 | 0.00 | 87 | 1013.9 |
| 20260505063504 | 10 | 0 | 1.6 | 1.6 | 0.00 | 0.00 | 0.00 | 87 | 1015.9 |
| 20260505063007 | 10 | 0 | 1.6 | 1.6 | 0.00 | 0.00 | 0.00 | 87 | 1015.9 |
| 20260505062504 | 10 | 0 | 1.6 | 1.6 | 0.00 | 0.00 | 0.00 | 87 | 1015.9 |
| 20260505060503 | 10 | 0 | 1.6 | 1.6 | 0.00 | 0.00 | 0.00 | 87 | 1015.9 |